Overview Statistics Trail Chart Weather Telemetry Raw packets
 

This is the latest recevied weather packets stored in our database for station/object SP6PGH-13. If no packets are shown the sender has not sent any weather packets the latest 10 day(s).

<< 3 4 5 6 7 8 9 >>
Time Temp. Humidity Pressure Rain* Wind** Luminosity Snow
1788509451 21.11° C 70% 1000.4 hPa - - 229 W/m² -
1788508550 21.11° C 71% 1000.5 hPa - - 180 W/m² -
1788507649 20.56° C 72% 1000.4 hPa - - 188 W/m² -
1788506775 21.11° C 71% 1000.6 hPa - - 240 W/m² -
1788505846 19.44° C 75% 1000.9 hPa - - 241 W/m² -
1788504946 19.44° C 76% 1001 hPa - - 71 W/m² -
1788504045 19.44° C 78% 1000.7 hPa - - 113 W/m² -
1788503144 18.89° C 77% 1000.8 hPa - - 67 W/m² -
1788502242 18.89° C 78% 1000.9 hPa - - 77 W/m² -
1788501341 18.33° C 79% 1001 hPa - - 50 W/m² -
1788500440 18.33° C 79% 1001.3 hPa - - 31 W/m² -
1788499539 18.33° C 80% 1001 hPa - - 43 W/m² -
1788498638 18.33° C 80% 1001.2 hPa - - 12 W/m² -
1788497737 17.78° C 80% 1001.3 hPa - - 14 W/m² -
1788496836 17.78° C 81% 1001 hPa - - 9 W/m² -
1788495935 17.22° C 82% 1000.9 hPa - - 4 W/m² -
1788495034 17.78° C 81% 1001.2 hPa - - 1 W/m² -
1788494133 17.78° C 81% 1001.3 hPa - - - -
1788493232 17.22° C 82% 1001.5 hPa - - - -
1788492330 17.22° C 82% 1001.5 hPa - - - -
1788491429 17.22° C 81% 1001.4 hPa - - - -
1788490528 17.78° C 81% 1001.3 hPa - - - -
1788489627 17.78° C 80% 1001.5 hPa - - - -
1788488726 17.78° C 80% 1001.4 hPa - - - -
1788487825 17.22° C 80% 1001.5 hPa - - - -

* Rain since midnight (hover to see other rain measurements)
** Current wind speed in m/s (hover to see current wind gust speed)